Tracking 28356 objects as of 7-Dec-2023
HD Live streaming from Space Station
objects crossing your sky now

SL-8 R/B

Track SL-8 R/B now!
10-day predictions


NORAD ID: 8646
Int'l Code: 1976-011B
Perigee: 988.5 km
Apogee: 996.8 km
Inclination: 83.0 °
Period: 104.8 minutes
Semi major axis: 7363 km
RCS: 4.2529 m2 (large)
Launch date: February 3, 1976
Source: Commonwealth of Independent States (former USSR) (CIS)
Launch site: PLESETSK MISSILE AND SPACE COMPLEX (PKMTR)

Note: This is a ROCKET BODY
Your satellite tracking list
Your tracking list is empty




NASA's NSSDC Master Catalog

Two Line Element Set (TLE):
1  8646U 76011B   23341.21183597  .00000051  00000-0  37817-4 0  9994
2  8646  82.9709  30.9860 0005632 176.7124 241.5196 13.73938681398187
Source of the keplerian elements: AFSPC